Flag for Germany Weather past 2 weeks in Waldkraiburg, Bavaria, Germany

Now
68 °F

Mild.


Feels Like: 68 °F
Forecast: 49 / 70 °F
Wind: 5 mph from North

Location: Erding Airport

Current Time: Aug 29, 2014 at 4:23:06 PM

Latest Report: Aug 29, 2014 at 3:20 PM


Visibility: 4 mi

Pressure: 30.09 "Hg

Humidity: 73%

Dew point: 59 °F

Location of WaldkraiburgLocation

Historic Weather in Waldkraiburg — Graph

°F

Waldkraiburg temperature yesterday

Maximum temperature yesterday: 70 °F (at 2:20 PM)
Minimum temperature yesterday: 46 °F (at 5:20 AM)
Average temperature yesterday: 58 °F

Past Weeks' High & Low Weather Summary

 TemperatureHumidityPressure
High72 °F (Aug 18, 3:20 PM)100% (Aug 19, 5:20 AM)30.15 "Hg (Aug 19, 5:20 AM)
Low45 °F (Aug 25, 3:20 AM)38% (Aug 21, 5:20 PM)29.74 "Hg (Aug 26, 8:20 AM)
Average59 °F77%30.00 "Hg
* Reported Aug 18 8:20 AM — Aug 29 2:20 PM, Waldkraiburg, Weather by CustomWeather, © 2014

Note: Actual official high and low records may vary slightly from our data, if they occured in-between our weather recording intervals... More about our weather records

Advertising

Waldkraiburg weather history for previous 24 hours

 ConditionsComfort  
Time TempWeatherWind HumidityBarometerVisibility
2:20 PM
Aug 29
68 °FMild.6 mph78%30.09 "Hg4 mi
1:20 PM68 °FMild.9 mph78%30.09 "Hg4 mi
12:20 PM70 °FMild.6 mph69%30.07 "Hg4 mi
11:20 AM70 °FBroken clouds.5 mph69%30.07 "HgN/A
10:20 AM68 °FBroken clouds.5 mph73%30.09 "HgN/A
9:20 AM64 °FScattered clouds.5 mph83%30.07 "HgN/A
8:20 AM61 °FPassing clouds.5 mph83%30.07 "HgN/A
7:20 AM54 °FPassing clouds.3 mph100%30.07 "HgN/A
6:20 AM52 °FCool.2 mph100%30.07 "Hg3 mi
5:20 AM52 °FCool.1 mph100%30.07 "Hg4 mi
4:20 AM54 °FCool.3 mph100%30.07 "Hg4 mi
3:20 AM54 °FCool.2 mph100%30.09 "Hg4 mi
2:20 AM55 °FCool.1 mph94%30.09 "Hg5 mi
1:20 AM57 °FCool.3 mph88%30.09 "Hg5 mi
12:20 AM54 °FCool.3 mph94%30.09 "Hg5 mi
11:20 PM
Aug 28
59 °FCool.3 mph82%30.09 "Hg5 mi
10:20 PM59 °FCool.3 mph82%30.09 "Hg5 mi
9:20 PM59 °FCool.2 mph88%30.07 "Hg6 mi
8:20 PM63 °FMild.2 mph77%30.07 "Hg6 mi
7:20 PM66 °FMild.3 mph68%30.07 "HgN/A
6:20 PM70 °FMild.5 mph57%30.07 "HgN/A
5:20 PM70 °FMild.5 mph57%30.07 "HgN/A
4:20 PM70 °FPassing clouds.3 mph53%30.07 "HgN/A
Weather by CustomWeather, © 2014

See weather overviewHow to use our weather pages